TimeCST,TemperatureF,Dew PointF,Humidity,Sea Level PressureIn,VisibilityMPH,Wind Direction,Wind SpeedMPH,Gust SpeedMPH,PrecipitationIn,Events,Conditions,WindDirDegrees,DateUTC
12:53 AM,34.0,30.9,89,30.21,6.0,North,5.8,-,N/A,,Overcast,350,2013-01-03 06:53:00
1:53 AM,33.8,30.2,87,30.21,7.0,NNW,4.6,-,N/A,,Overcast,330,2013-01-03 07:53:00
2:53 AM,34.0,30.9,89,30.25,8.0,NW,3.5,-,N/A,,Overcast,310,2013-01-03 08:53:00
3:53 AM,34.0,30.9,89,30.25,6.0,NW,4.6,-,N/A,,Overcast,310,2013-01-03 09:53:00
4:53 AM,34.0,30.9,89,30.25,6.0,NNW,4.6,-,N/A,,Overcast,340,2013-01-03 10:53:00
5:53 AM,34.0,30.9,89,30.27,7.0,NNW,5.8,-,N/A,,Overcast,330,2013-01-03 11:53:00
6:53 AM,33.1,28.9,85,30.28,7.0,NNW,6.9,-,N/A,,Overcast,340,2013-01-03 12:53:00
7:17 AM,32.0,28.4,87,30.28,7.0,NNW,6.9,-,N/A,,Overcast,330,2013-01-03 13:17:00
7:53 AM,32.0,28.9,88,30.30,7.0,NNW,4.6,-,N/A,,Mostly Cloudy,340,2013-01-03 13:53:00
8:53 AM,34.0,28.9,82,30.32,7.0,NNW,5.8,-,N/A,,Mostly Cloudy,340,2013-01-03 14:53:00
9:53 AM,36.0,30.0,79,30.33,8.0,NNW,8.1,-,N/A,,Mostly Cloudy,340,2013-01-03 15:53:00
10:53 AM,35.1,28.9,78,30.34,8.0,NNW,10.4,-,N/A,,Mostly Cloudy,340,2013-01-03 16:53:00
11:53 AM,39.0,28.0,65,30.31,9.0,NNE,8.1,-,N/A,,Scattered Clouds,20,2013-01-03 17:53:00
12:53 PM,42.1,28.9,60,30.30,10.0,NNW,6.9,-,N/A,,Partly Cloudy,330,2013-01-03 18:53:00
1:53 PM,44.1,28.9,55,30.30,10.0,NNW,5.8,-,N/A,,Partly Cloudy,330,2013-01-03 19:53:00
2:53 PM,45.0,28.0,52,30.31,10.0,North,5.8,-,N/A,,Partly Cloudy,350,2013-01-03 20:53:00
3:53 PM,44.1,27.0,51,30.32,10.0,NW,6.9,-,N/A,,Clear,320,2013-01-03 21:53:00
4:53 PM,41.0,27.0,57,30.34,10.0,NNW,4.6,-,N/A,,Clear,340,2013-01-03 22:53:00
5:53 PM,37.9,26.1,62,30.34,10.0,NNE,4.6,-,N/A,,Clear,20,2013-01-03 23:53:00
6:53 PM,37.9,26.1,62,30.35,10.0,NE,4.6,-,N/A,,Clear,40,2013-01-04 00:53:00
7:53 PM,33.1,27.0,78,30.38,10.0,NW,4.6,-,N/A,,Clear,320,2013-01-04 01:53:00
8:53 PM,32.0,27.0,82,30.40,10.0,NNW,4.6,-,N/A,,Clear,330,2013-01-04 02:53:00
9:53 PM,32.0,26.1,79,30.41,10.0,North,3.5,-,N/A,,Clear,350,2013-01-04 03:53:00
10:53 PM,30.9,27.0,85,30.40,10.0,Calm,Calm,-,N/A,,Scattered Clouds,0,2013-01-04 04:53:00
11:53 PM,34.0,24.1,67,30.38,10.0,NNE,8.1,-,N/A,,Mostly Cloudy,30,2013-01-04 05:53:00